FW1898 Weather Reports


time (UTC)temp
F
wind
direction
speed
knots
gust
knots
rain 1hr
in
rain 24hr
in
rain mn
in
humidity
%
barometer
mb
20260508135444 53 273 4.3 7.8 0.00 0.03 0.03 100 1118.7
20260508134541 53 269 5.2 7.8 0.00 0.03 0.03 100 1118.6
20260508133543 52 269 5.2 7.0 0.00 0.03 0.03 100 1118.7
20260508132640 52 275 4.3 8.7 0.00 0.03 0.03 100 1118.7
20260508130642 51 271 6.1 11.3 0.00 0.03 0.03 100 1118.5
20260508124741 51 275 6.1 9.6 0.00 0.03 0.03 100 1118.6
20260508123740 50 279 3.5 6.1 0.00 0.03 0.03 100 1118.7
20260508122826 50 268 5.2 7.0 0.00 0.03 0.03 100 1118.6
20260508121840 50 264 4.3 6.1 0.00 0.03 0.03 100 1118.4
20260508121741 50 240 4.3 7.8 0.00 0.03 0.03 100 1118.4
20260508120742 49 262 5.2 7.8 0.00 0.03 0.03 100 1118.4
20260508115823 49 279 3.5 5.2 0.00 0.03 0.03 100 1118.4
20260508114840 48 268 5.2 9.6 0.00 0.03 0.03 100 1118.1
20260508113842 47 241 3.5 6.1 0.00 0.03 0.03 100 1118.1
20260508112925 46 254 1.7 2.6 0.00 0.03 0.03 100 1118.0
20260508111941 46 200 4.3 6.1 0.00 0.03 0.03 100 1117.9
20260508110039 45 195 0.0 0.9 0.00 0.03 0.03 100 1117.6
20260508105040 45 180 0.0 0.9 0.00 0.03 0.03 100 1117.5
20260508104041 45 202 0.9 0.9 0.00 0.03 0.03 100 1117.4
20260508103041 45 205 1.7 4.3 0.00 0.03 0.03 100 1117.4
20260508102040 45 173 0.9 1.7 0.00 0.03 0.03 100 1117.4
20260508101041 45 204 1.7 1.7 0.00 0.03 0.03 100 1117.8
20260508100040 45 270 1.7 2.6 0.00 0.03 0.03 100 1117.7
20260508095040 45 183 2.6 5.2 0.00 0.03 0.03 100 1117.4
20260508094040 44 218 1.7 2.6 0.00 0.03 0.03 100 1117.5
20260508093043 44 223 1.7 3.5 0.01 0.03 0.03 100 1117.5
20260508092041 44 180 0.9 1.7 0.01 0.03 0.03 100 1117.3
20260508091125 44 191 0.9 2.6 0.01 0.03 0.03 100 1117.4
20260508090140 45 212 0.9 0.9 0.01 0.03 0.03 100 1117.5
20260508085141 45 247 0.0 1.7 0.02 0.03 0.03 100 1117.7
20260508084240 45 218 1.7 3.5 0.02 0.03 0.03 100 1117.6
20260508083242 45 218 2.6 4.3 0.01 0.02 0.02 100 1117.4
20260508082241 45 222 4.3 7.8 0.01 0.02 0.02 100 1117.8
20260508081341 46 221 2.6 4.3 0.02 0.02 0.02 100 1117.9
20260508080339 46 270 4.3 6.1 0.02 0.02 0.02 100 1118.2
20260508075342 46 262 6.1 8.7 0.01 0.01 0.01 100 1118.2
20260508074440 46 220 7.8 12.2 0.01 0.01 0.01 100 1118.1
20260508073442 45 226 3.5 4.3 0.01 0.01 0.01 100 1117.9
20260508072440 44 214 4.3 7.0 0.01 0.01 0.01 100 1118.0
20260508071443 44 214 1.7 3.5 0.00 0.00 0.00 100 1117.9
20260508070541 44 220 2.6 3.5 0.00 0.00 0.00 100 1118.1
20260508065640 44 203 2.6 5.2 0.00 0.00 0.00 100 1118.3
20260508064640 44 209 2.6 4.3 0.00 0.00 0.00 100 1118.3
20260508063724 45 224 2.6 4.3 0.00 0.00 0.00 100 1118.4
20260508062739 45 218 4.3 6.1 0.00 0.00 0.00 100 1118.5
20260508061839 45 226 2.6 4.3 0.00 0.00 0.00 100 1118.7
20260508060840 46 243 2.6 3.5 0.00 0.00 0.00 100 1118.9
20260508054939 46 247 1.7 2.6 0.00 0.00 0.00 100 1119.0
20260508053941 47 217 2.6 3.5 0.00 0.00 0.00 100 1118.9
20260508053039 47 256 1.7 3.5 0.00 0.00 0.00 100 1118.9
20260508051138 47 202 1.7 1.7 0.00 0.00 0.00 100 1118.9
20260508043141 46 157 0.0 0.0 0.00 0.00 0.00 100 1118.8
20260508041141 46 225 0.0 0.0 0.00 0.00 0.00 100 1118.7
20260508040240 47 225 0.0 0.0 0.00 0.00 0.00 100 1118.8
20260508035334 47 225 0.9 1.7 0.00 0.00 0.00 100 1118.8
20260508034334 48 247 0.9 0.9 0.00 0.00 0.00 100 1119.1
20260508033335 48 225 0.0 0.9 0.00 0.00 0.00 100 1119.1
20260508031335 48 247 0.0 0.9 0.00 0.00 0.00 100 1119.1
20260508030337 48 247 0.9 1.7 0.00 0.00 0.00 100 1119.3
20260508025336 49 247 0.9 1.7 0.00 0.00 0.00 100 1119.4
20260508024337 49 276 1.7 3.5 0.00 0.00 0.00 100 1119.4
20260508023336 49 281 2.6 3.5 0.00 0.00 0.00 100 1119.4
20260508022336 49 287 4.3 6.1 0.00 0.00 0.00 100 1119.3
20260508015534 50 296 9.6 15.6 0.00 0.00 0.00 100 1119.4
20260508014536 50 284 2.6 4.3 0.00 0.00 0.00 100 1119.1
20260508013537 50 290 3.5 6.1 0.00 0.00 0.00 100 1118.9
20260508012635 49 225 1.7 2.6 0.00 0.00 0.00 100 1118.7
20260508011635 49 257 1.7 2.6 0.00 0.00 0.00 100 1118.7
20260508010635 49 225 0.0 0.0 0.00 0.00 0.00 100 1118.4
20260508005721 49 233 0.9 1.7 0.00 0.00 0.00 100 1118.4
20260508004735 49 247 0.0 0.9 0.00 0.00 0.00 100 1118.3
20260508002735 50 247 0.9 1.7 0.00 0.00 0.00 100 1118.2
20260508001736 50 247 0.9 1.7 0.00 0.00 0.00 100 1118.2
20260508000819 51 265 1.7 1.7 0.00 0.00 0.00 100 1118.1
20260507235836 52 270 1.7 2.6 0.00 0.00 0.00 100 1118.1
20260507234836 53 291 3.5 5.2 0.00 0.00 0.00 100 1118.0
20260507233935 54 290 4.3 6.1 0.00 0.00 0.00 100 1118.1
20260507233021 54 276 5.2 7.8 0.00 0.00 0.00 100 1118.1
20260507232035 54 270 2.6 5.2 0.00 0.00 0.00 100 1118.1
20260507231037 54 277 2.6 5.2 0.00 0.00 0.00 100 1118.2
20260507230135 53 284 3.5 5.2 0.00 0.00 0.00 100 1118.1
20260507225137 53 278 5.2 7.0 0.00 0.00 0.00 100 1118.2
20260507223136 56 291 6.1 9.6 0.00 0.00 0.00 100 1118.3
20260507222135 56 271 4.3 7.0 0.00 0.00 0.00 100 1118.2
20260507221219 56 286 6.1 9.6 0.00 0.00 0.00 100 1118.4
20260507220236 56 313 3.5 5.2 0.00 0.00 0.00 100 1118.2
20260507215335 56 286 10.4 17.4 0.00 0.00 0.00 100 1118.2
20260507212520 55 287 6.1 9.6 0.00 0.00 0.00 100 1118.2
20260507211537 55 300 6.1 10.4 0.00 0.00 0.00 100 1118.0
20260507210537 56 281 5.2 7.0 0.00 0.00 0.00 100 1118.0
20260507205536 54 291 8.7 12.2 0.00 0.00 0.00 100 1117.8
20260507203637 55 287 7.8 11.3 0.00 0.00 0.00 100 1117.9
20260507201734 55 285 7.0 9.6 0.00 0.00 0.00 100 1117.6
20260507200737 55 280 7.8 11.3 0.00 0.00 0.00 100 1117.9
20260507194835 53 283 7.8 12.2 0.00 0.00 0.00 100 1118.0
20260507193922 54 299 8.7 13.9 0.00 0.00 0.00 100 1118.2
20260507192934 53 291 7.8 12.2 0.00 0.00 0.00 100 1118.3
20260507191934 53 287 6.1 12.2 0.00 0.00 0.00 100 1118.3
20260507190936 54 278 7.0 10.4 0.00 0.00 0.00 100 1118.5
20260507185934 54 281 9.6 14.8 0.00 0.00 0.00 100 1118.3
20260507183935 54 282 7.8 11.3 0.00 0.00 0.00 100 1118.4
20260507183034 54 278 7.0 10.4 0.00 0.00 0.00 100 1118.5
20260507182038 53 230 5.2 7.8 0.00 0.00 0.00 100 1118.3
20260507181135 54 267 7.8 15.6 0.00 0.00 0.00 100 1118.6
20260507175235 53 281 7.0 10.4 0.00 0.00 0.00 100 1118.6
20260507174235 53 277 7.0 13.0 0.00 0.00 0.00 100 1118.9
20260507173318 53 269 5.2 8.7 0.00 0.00 0.00 100 1118.7
20260507172336 54 270 9.6 15.6 0.00 0.00 0.00 100 1118.9
20260507172237 54 266 6.1 11.3 0.00 0.00 0.00 100 1118.9
20260507170435 52 237 4.3 7.8 0.00 0.00 0.00 100 1118.7
20260507165433 53 267 5.2 9.6 0.00 0.00 0.00 100 1118.8
20260507164418 52 280 7.8 12.2 0.00 0.00 0.00 100 1119.0
20260507162534 53 275 6.1 8.7 0.00 0.00 0.00 100 1118.8
20260507155534 51 273 3.5 5.2 0.00 0.00 0.00 100 1119.0
20260507154536 52 283 5.2 7.0 0.00 0.00 0.00 100 1118.9
20260507153635 52 286 6.1 8.7 0.00 0.00 0.00 100 1118.9
20260507152636 51 268 4.3 6.1 0.00 0.00 0.00 100 1118.9
20260507151733 51 290 2.6 5.2 0.00 0.00 0.00 100 1118.9
20260507151635 51 268 3.5 5.2 0.00 0.00 0.00 100 1118.9
20260507150635 50 257 2.6 6.1 0.00 0.00 0.00 100 1119.0
20260507145635 50 274 4.3 7.0 0.00 0.00 0.00 100 1119.0
20260507144635 50 248 4.3 7.8 0.00 0.00 0.00 100 1119.1
20260507143636 49 263 3.5 5.2 0.00 0.00 0.00 100 1119.1
20260507142735 49 259 4.3 6.1 0.00 0.00 0.00 100 1118.9
20260507141834 49 290 4.3 7.0 0.00 0.00 0.00 100 1119.0
20260507140838 48 212 3.5 6.1 0.00 0.00 0.00 100 1119.1